Regional Weather Roundup
Issued by NWS

Home | Current Version | Previous Version | Text Only | Print | Product List | Glossary On
Versions: 1 2 3 4 5 6 7 8 9 10 11 12 13 14 15 16 17 18 19 20 21 22 23 24 25 26 27 28 29 30 31 32 33 34 35 36 37 38 39 40 41 42 43 44 45 46 47 48 49 50
000
ASUS43 KMKX 122059
RWRWI

WISCONSIN REGIONAL WEATHER ROUNDUP
NATIONAL WEATHER SERVICE MILWAUKEE/SULLIVAN WI
300 PM CST TUE DEC 12 2017

NOTE: "FAIR" INDICATES FEW OR NO CLOUDS BELOW 12,000 FEET WITH NO
SIGNIFICANT WEATHER AND/OR OBSTRUCTIONS TO VISIBILITY.

WIZ001-002-006>008-014>016-023>028-122200-
NORTHWEST WISCONSIN

CITY           SKY/WX    TMP DP  RH WIND       PRES   REMARKS
SUPERIOR ARPT  CLOUDY    14   4  66 SW7       29.99F WCI   3
ASHLAND        PTCLDY    13   0  56 SW6       29.99F WCI   4
HAYWARD        CLOUDY    12  -1  56 S7        29.95F WCI   1
SIREN          FLURRIES  14   4  67 S3        30.00F
CUMBERLAND     FLURRIES  12   3  67 S7        29.98F WCI   2
RICE LAKE      CLOUDY    13   2  61 CALM      30.01F
CHETEK         CLOUDY    13   1  58 SW6       30.01F WCI   4
LADYSMITH      CLOUDY    14   0  52 W3        30.00F
EAU CLAIRE     NOT AVBL
MENOMONIE      CLOUDY    16   2  53 S3        30.04F
NEW RICHMOND   CLOUDY    15   6  66 S3        30.01F
OSCEOLA        CLOUDY    16   8  71 S6        30.04F WCI   7
$$

WIZ003>005-009-010-017-018-122200-
NORTH CENTRAL WISCONSIN

CITY           SKY/WX    TMP DP  RH WIND       PRES   REMARKS
MANITOWISH WTR PTCLDY     8  -1  69 NW3       29.92F
ARBOR VITAE    PTCLDY    11   2  67 CALM      29.92F
WOODRUFF       PTCLDY    11   2  67 CALM      29.92F
RHINELANDER    CLEAR     12   0  58 NW6       29.92F WCI   3
EAGLE RIVER    CLOUDY    11   1  65 NW8       29.91F WCI  -1
LAND O LAKES   LGT SNOW  12   5  73 NW6       29.91F WCI   3
PHILLIPS       CLOUDY    11  -2  56 CALM      29.95F
TOMAHAWK       CLEAR     13  -2  52 NW5       29.95F WCI   5
MEDFORD        CLEAR     12  -3  50 W9        29.95F WCI   0
MERRILL        CLEAR     15  -1  48 NW8       29.96F WCI   5
$$

WIZ029-030-035-036-043>047-122200-
CENTRAL WISCONSIN

CITY           SKY/WX    TMP DP  RH WIND       PRES   REMARKS
WAUSAU         CLEAR     12   0  58 W12       29.96F WCI  -2
MOSINEE        PTCLDY    12   1  62 W9        29.98F WCI   0
MARSHFIELD     SUNNY     12   0  58 W7        29.97F WCI   1
STEVENS POINT  CLEAR     11  -1  58 W12       30.00F WCI  -3
WAUPACA        CLEAR     19   3  50 W12       30.01S WCI   6
WAUTOMA        MOSUNNY   16   1  51 W14       30.02  WCI   2
WISC RAPIDS    SUNNY     15   0  51 W7        30.02F WCI   5
CAMP DOUGLAS   NOT AVBL
$$

WIZ011>013-019>022-031-037>040-048>050-122200-
NORTHEAST WISCONSIN

CITY           SKY/WX    TMP DP  RH WIND       PRES   REMARKS
ANTIGO         CLEAR     13   2  62 W9        29.93S WCI   0
SHAWANO        PTCLDY    18   4  55 W6        29.99S WCI   9
OCONTO         CLOUDY    18   4  53 NW8       29.98F WCI   7
STURGEON BAY   FLURRIES  16   6  65 NW10      29.97S WCI   4
GREEN BAY      PTCLDY    18   3  52 W12       30.00S WCI   5
MANITOWOC      CLOUDY    18   5  57 W13       29.99S WCI   5
APPLETON       PTCLDY    18   0  45 NW8       29.97F WCI   7
CLINTONVILLE   NOT AVBL
OSHKOSH        PTCLDY    18   4  54 W14       30.00S WCI   4
$$

WIZ032>034-041-042-053>061-122200-
SOUTHWEST WISCONSIN

CITY           SKY/WX    TMP DP  RH WIND       PRES   REMARKS
LA CROSSE      CLOUDY    21   2  43 NW6       30.06F WCI  13
SPARTA         CLOUDY    18   1  46 W5        30.05F WCI  11
VIROQUA        CLOUDY    18   4  55 W6        30.03F WCI   9
BOSCOBEL       CLOUDY    21   0  39 NW10      30.08F WCI  10
PRAIRIE DU CHI CLOUDY    23   3  42 W6        30.09F WCI  15
PLATTEVILLE    CLOUDY    22   4  46 NW10      30.05F WCI  11
$$

WIZ056-057-062-063-064-067-068-122200-
SOUTH CENTRAL WISCONSIN

CITY           SKY/WX    TMP DP  RH WIND       PRES   REMARKS
REEDSBURG      CLOUDY    19  -1  40 NW10      30.04S WCI   7
BARABOO/DELLS  MOSUNNY   18  -2  41 W10       30.02F WCI   7
LONE ROCK      NOT AVBL
MINERAL POINT  CLOUDY    21   1  42 NW10G17   30.03F WCI  10
MADISON        PTSUNNY   21   2  43 W12G18    30.02F WCI   9
MIDDLETON      PTSUNNY   21   1  41 NW14      30.03F WCI   8
WATERTOWN      MOSUNNY   19   4  53 W12       30.02F WCI   6
MONROE         CLOUDY    21  -4  33 W12G17    30.02S WCI   9
JANESVILLE     PTSUNNY   25  -2  30 NW14      30.02F WCI  13
$$

WIZ051-052-058>065-066-070>072-122200-
SOUTHEAST WISCONSIN

CITY           SKY/WX    TMP DP  RH WIND       PRES   REMARKS
MILWAUKEE      MOSUNNY   21   6  52 W16G22    30.01S WCI   7
WAUKESHA       SUNNY     16   3  57 W14G22    30.01F WCI   1
MILWAUKEE/TIMM SUNNY     18   1  49 NW15      30.01F WCI   3
RACINE         SUNNY     20   5  52 NW14G22   30.02F WCI   7
BURLINGTON     SUNNY     32  20  61 NW13G18   30.02F WCI  22
KENOSHA        SUNNY     20   6  55 W13G23    30.01F WCI   7
FOND DU LAC    CLEAR     19   2  47 W13       30.00F WCI   6
SHEBOYGAN      MOCLDY    17   5  59 NW16G22   29.99S WCI   2
WEST BEND      PTCLDY    18   5  57 W17       29.99F WCI   2
JUNEAU         MOSUNNY   17   3  54 W5        30.02F WCI  10
$$

LSZ147-162-122200-
LAKE SUPERIOR

STATION/POSITION TIME  TEMP    WIND        PRES    WAVE
                       AIR SEA DIR/SP/G            HT/PER
                 (UTC) (F)     (DEG/KT/KT) (MB)    (FT/S)
DEVILS ISLAND    2000   14     250/  6/  8 1017.4F
SAXON HARBOR     2030   13                 1015.6F
$$

LMZ867-665-643>646-122200-
LAKE MICHIGAN

STATION/POSITION TIME  TEMP    WIND        PRES    WAVE
                       AIR SEA DIR/SP/G            HT/PER
                 (UTC) (F)     (DEG/KT/KT) (MB)    (FT/S)
NORTHPORT PIER   2040   18     330/ 14/ 21 1014.2S
KEWAUNEE LAKESHO 2030   17     310/  8/ 13 1014.5F
SHEBOYGAN LAKESH 2000   18     310/ 16/ 18 1016.9F
PORT WASHINGTON  2030   19     280/ 12/ 18 1017.3S
MILWAUKEE LAKESH 2030   19     290/ 10/ 14   N/A
KENOSHA   LAKESH 2000   20     310/ 12/ 19 1016.6
$$

TC  - TEMPERATURE IN CELSIUS
VSB - VISIBILITY IN STATUTE MILES
WCI - WIND CHILL INDEX
HX  - HEAT INDEX





USA.gov is the U.S. government's official web portal to all federal, state and local government web resources and services.